Location: Goettingen
(51.5300°N, 9.9433°E)
Time: 11:04:13
(UTC+02:00)

ISS - Pass Details

Date: 30 March 2017
Orbit: 401 x 409 km, 51.6° (Epoch: 28 April)

Event Time Altitude Azimuth Distance (km) Brightness Sun altitude
Rises 20:38:35 0° 220° (SW) 2,310 0.3 -8.1°
Reaches altitude 10° 20:40:50 10° 207° (SSW) 1,456 -0.9 -8.5°
Maximum altitude 20:43:38 26° 148° (SSE) 828 -2.7 -8.9°
Enters shadow 20:45:59 13° 94° (E) 1,308 -1.9 -9.2°
